Home > Weather > Strasbourg > Past weeks

Flag for France Weather for the Past 2 Weeks in Strasbourg, Alsace, France

Now
52 °F

Light rain. More clouds than sun.


Feels Like: 48 °F
Forecast: 39 / 59 °F
Wind: 12 mph from Northwest

Location: Strasbourg Airport

Current Time: May 3, 2016 at 1:10:55 PM

Latest Report: May 3, 2016 at 12:30 PM


Visibility: N/A

Pressure: 30.18 "Hg

Humidity: 82%

Dew Point: 46 °F

Location of StrasbourgLocation

Historic Weather in Strasbourg — Graph

°F

Strasbourg Temperature Yesterday

Maximum temperature yesterday: 68 °F (at 5:00 PM)
Minimum temperature yesterday: 43 °F (at 5:00 AM)
Average temperature yesterday: 56 °F

High & Low Weather Summary for the Past Weeks

 TemperatureHumidityPressure
High70 °F (Apr 21, 3:30 PM)100% (Apr 19, 3:00 AM)30.36 "Hg (Apr 19, 3:00 AM)
Low32 °F (Apr 29, 6:30 AM)33% (Apr 21, 3:30 PM)29.62 "Hg (Apr 26, 5:00 AM)
Average49 °F70%30.04 "Hg
* Reported Apr 18 12:00 Noon — May 3 12:00 Noon, Strasbourg, Weather by CustomWeather, © 2016

Note: Actual official high and low records may vary slightly from our data, if they occured in-between our weather recording intervals... More about our weather records

Advertising

Strasbourg Weather History for the Previous 24 Hours

Scroll right to see more
 ConditionsComfort  
Time TempWeatherWind HumidityBarometerVisibility
12:00 PM
Tue, May 3
52 °FDrizzle. Mostly cloudy.10 mph82%30.18 "HgN/A
11:30 AM52 °FLight rain. Partly sunny.14 mph82%30.18 "HgN/A
11:00 AM52 °FLight rain. Partly sunny.12 mph88%30.18 "HgN/A
10:30 AM54 °FLight rain. Partly sunny.9 mph77%30.15 "HgN/A
10:00 AM55 °FBroken clouds.No wind72%30.15 "HgN/A
9:30 AM55 °FBroken clouds.2 mph72%30.15 "HgN/A
9:00 AM54 °FPassing clouds.3 mph77%30.15 "HgN/A
8:30 AM52 °FPassing clouds.5 mph77%30.12 "HgN/A
8:00 AM50 °FSunny.5 mph82%30.12 "Hg10 mi
7:30 AM48 °FSunny.3 mph87%30.12 "Hg10 mi
7:00 AM46 °FClear.3 mph87%30.12 "Hg10 mi
6:30 AM46 °FClear.3 mph87%30.12 "Hg10 mi
6:00 AM46 °FClear.5 mph87%30.12 "Hg10 mi
5:30 AM45 °FPassing clouds.5 mph93%30.12 "HgN/A
5:00 AM45 °FClear.5 mph87%30.12 "Hg10 mi
4:30 AM45 °FClear.2 mph81%30.12 "Hg10 mi
3:30 AM45 °FPassing clouds.3 mph87%30.12 "HgN/A
3:00 AM46 °FClear.2 mph82%30.12 "Hg10 mi
2:30 AM46 °FPassing clouds.5 mph87%30.12 "HgN/A
2:00 AM46 °FClear.5 mph87%30.12 "Hg10 mi
1:30 AM48 °FClear.5 mph82%30.12 "Hg10 mi
1:00 AM48 °FClear.5 mph82%30.12 "Hg10 mi
12:30 AM50 °FClear.3 mph76%30.12 "Hg10 mi
12:00 AM50 °FClear.5 mph82%30.12 "Hg10 mi
11:00 PM
Mon, May 2
52 °FClear.6 mph72%30.12 "Hg10 mi
10:30 PM54 °FClear.5 mph67%30.12 "Hg10 mi
10:00 PM54 °FClear.2 mph77%30.12 "Hg10 mi
9:30 PM55 °FSunny.2 mph67%30.12 "Hg10 mi
9:00 PM57 °FSunny.2 mph67%30.09 "Hg10 mi
8:30 PM61 °FSunny.3 mph55%30.09 "Hg10 mi
8:00 PM64 °FSunny.5 mph43%30.09 "Hg10 mi
7:30 PM66 °FSunny.2 mph37%30.09 "Hg10 mi
7:00 PM68 °FSunny.3 mph33%30.09 "Hg10 mi
6:30 PM68 °FPassing clouds.6 mph38%30.12 "HgN/A
6:00 PM68 °FPassing clouds.6 mph35%30.12 "HgN/A
5:30 PM68 °FPassing clouds.5 mph38%30.12 "HgN/A
5:00 PM68 °FPassing clouds.8 mph38%30.12 "HgN/A
4:30 PM66 °FPassing clouds.8 mph40%30.15 "HgN/A
4:00 PM66 °FPassing clouds.9 mph40%30.15 "HgN/A
3:30 PM66 °FPassing clouds.8 mph37%30.15 "HgN/A
3:00 PM66 °FPassing clouds.9 mph40%30.15 "HgN/A
2:30 PM64 °FPassing clouds.12 mph37%30.15 "HgN/A
2:00 PM64 °FPassing clouds.8 mph46%30.18 "HgN/A
1:30 PM64 °FPassing clouds.9 mph46%30.18 "HgN/A
1:00 PM63 °FPassing clouds.9 mph56%30.18 "HgN/A
Weather by CustomWeather, © 2016

See weather overviewHow to use our weather pages